FW3849 Weather Reports


time (UTC)temp
C
wind
direction
speed
KPH
gust
KPH
rain 1hr
cm
rain 24hr
cm
rain mn
cm
humidity
%
barometer
mb
20260831230112 36 212 17.7 29.0 0.00 0.00 0.00 21 1009.2
20260831225100 36 166 14.5 24.1 0.00 0.00 0.00 21 1009.1
20260831224558 36 189 9.7 20.9 0.00 0.00 0.00 21 1009.2
20260831224058 36 150 11.3 22.5 0.00 0.00 0.00 20 1009.2
20260831223557 36 145 8.0 22.5 0.00 0.00 0.00 21 1009.2
20260831223108 36 157 6.4 17.7 0.00 0.00 0.00 21 1009.2
20260831222557 36 204 9.7 19.3 0.00 0.00 0.00 22 1009.2
20260831222055 35 206 11.3 22.5 0.00 0.00 0.00 22 1009.2
20260831221558 35 158 12.9 22.5 0.00 0.00 0.00 21 1009.3
20260831221054 35 202 8.0 19.3 0.00 0.00 0.00 22 1009.3
20260831220554 35 191 9.7 17.7 0.00 0.00 0.00 22 1009.3
20260831220053 35 182 14.5 22.5 0.00 0.00 0.00 23 1009.3
20260831215054 35 87 6.4 17.7 0.00 0.00 0.00 23 1009.4
20260831214604 35 149 8.0 19.3 0.00 0.00 0.00 23 1009.6
20260831214053 35 181 11.3 19.3 0.00 0.00 0.00 22 1009.8
20260831213552 35 146 8.0 19.3 0.00 0.00 0.00 23 1009.8
20260831213051 35 202 14.5 24.1 0.00 0.00 0.00 23 1009.9
20260831212550 36 200 12.9 24.1 0.00 0.00 0.00 22 1010.0
20260831212049 35 209 11.3 24.1 0.00 0.00 0.00 23 1010.1
20260831211550 35 193 14.5 24.1 0.00 0.00 0.00 23 1010.0
20260831211049 35 244 9.7 19.3 0.00 0.00 0.00 24 1010.0
20260831210550 35 217 8.0 22.5 0.00 0.00 0.00 24 1010.1
20260831210047 35 192 6.4 24.1 0.00 0.00 0.00 24 1010.4
20260831205046 35 192 14.5 24.1 0.00 0.00 0.00 24 1010.4
20260831204545 35 187 9.7 25.7 0.00 0.00 0.00 24 1010.6
20260831204045 35 187 16.1 25.7 0.00 0.00 0.00 24 1010.6
20260831203545 35 193 12.9 24.1 0.00 0.00 0.00 24 1010.6
20260831203046 35 158 14.5 22.5 0.00 0.00 0.00 24 1010.8
20260831202544 35 159 12.9 24.1 0.00 0.00 0.00 25 1010.9
20260831202042 35 200 16.1 27.4 0.00 0.00 0.00 26 1011.0
20260831201542 35 195 11.3 27.4 0.00 0.00 0.00 25 1011.1
20260831201041 35 186 11.3 24.1 0.00 0.00 0.00 25 1011.1
20260831200540 35 190 11.3 20.9 0.00 0.00 0.00 25 1011.2
20260831200043 35 177 12.9 24.1 0.00 0.00 0.00 26 1011.3
20260831195041 35 193 9.7 25.7 0.00 0.00 0.00 26 1011.3
20260831194557 35 222 14.5 25.7 0.00 0.00 0.00 25 1011.4
20260831194039 35 216 11.3 24.1 0.00 0.00 0.00 25 1011.4
20260831193539 35 189 16.1 24.1 0.00 0.00 0.00 25 1011.5
20260831193040 35 174 16.1 22.5 0.00 0.00 0.00 26 1011.4
20260831192539 34 166 11.3 35.4 0.00 0.00 0.00 27 1011.4
20260831192038 34 210 17.7 35.4 0.00 0.00 0.00 27 1011.4
20260831191538 35 205 16.1 24.1 0.00 0.00 0.00 26 1011.5
20260831191043 35 143 11.3 25.7 0.00 0.00 0.00 27 1011.7
20260831190536 34 196 14.5 25.7 0.00 0.00 0.00 28 1011.7
20260831190035 34 184 19.3 29.0 0.00 0.00 0.00 29 1011.7
20260831185033 33 200 16.1 27.4 0.00 0.00 0.00 29 1011.7
20260831184532 33 219 14.5 30.6 0.00 0.00 0.00 27 1011.8
20260831184032 33 205 17.7 29.0 0.00 0.00 0.00 29 1011.8
20260831183531 33 182 17.7 29.0 0.00 0.00 0.00 29 1011.9
20260831183034 33 122 11.3 29.0 0.00 0.00 0.00 30 1012.0
20260831182530 33 156 19.3 29.0 0.00 0.00 0.00 30 1012.1
20260831182028 33 200 17.7 29.0 0.00 0.00 0.00 32 1012.2
20260831181527 33 166 17.7 27.4 0.00 0.00 0.00 32 1012.2
20260831181026 33 187 16.1 25.7 0.00 0.00 0.00 34 1012.2
20260831180525 32 214 9.7 30.6 0.00 0.00 0.00 36 1012.4
20260831180025 32 189 11.3 29.0 0.00 0.00 0.00 35 1012.4
20260831175023 32 243 16.1 30.6 0.00 0.00 0.00 35 1012.5
20260831174522 32 206 17.7 30.6 0.00 0.00 0.00 35 1012.5
20260831174022 32 204 19.3 29.0 0.00 0.00 0.00 37 1012.7
20260831173525 32 165 12.9 29.0 0.00 0.00 0.00 38 1012.7
20260831173021 32 205 14.5 29.0 0.00 0.00 0.00 38 1012.7
20260831172523 32 189 12.9 29.0 0.00 0.00 0.00 39 1012.7
20260831172022 31 177 17.7 29.0 0.00 0.00 0.00 39 1012.8
20260831171519 31 198 14.5 24.1 0.00 0.00 0.00 40 1012.8
20260831171017 31 206 14.5 27.4 0.00 0.00 0.00 41 1012.8
20260831170517 31 196 17.7 27.4 0.00 0.00 0.00 41 1012.9
20260831170033 31 162 14.5 32.2 0.00 0.00 0.00 43 1012.9
20260831165117 31 148 12.9 22.5 0.00 0.00 0.00 43 1013.1
20260831164521 31 189 16.1 24.1 0.00 0.00 0.00 43 1013.1
20260831164019 30 205 12.9 25.7 0.00 0.00 0.00 44 1013.2
20260831163514 30 200 14.5 25.7 0.00 0.00 0.00 44 1013.1
20260831163016 30 187 14.5 24.1 0.00 0.00 0.00 45 1013.1
20260831162513 30 181 9.7 22.5 0.00 0.00 0.00 46 1013.0
20260831162013 30 156 14.5 24.1 0.00 0.00 0.00 46 1013.1
20260831161510 29 205 12.9 24.1 0.00 0.00 0.00 47 1013.2
20260831161010 29 206 14.5 22.5 0.00 0.00 0.00 47 1013.1
20260831160510 29 203 11.3 24.1 0.00 0.00 0.00 48 1013.1
20260831160012 28 174 11.3 22.5 0.00 0.00 0.00 49 1013.2
20260831155008 28 149 11.3 25.7 0.00 0.00 0.00 49 1013.1
20260831154518 28 212 16.1 25.7 0.00 0.00 0.00 50 1013.1
20260831154005 28 173 9.7 22.5 0.00 0.00 0.00 50 1013.1
20260831153504 28 196 12.9 22.5 0.00 0.00 0.00 51 1013.3
20260831153003 27 196 12.9 22.5 0.00 0.00 0.00 51 1013.3
20260831152503 27 190 14.5 22.5 0.00 0.00 0.00 51 1013.2
20260831152005 27 189 12.9 22.5 0.00 0.00 0.00 52 1013.3
20260831151504 27 190 14.5 22.5 0.00 0.00 0.00 52 1013.3
20260831151003 27 177 11.3 22.5 0.00 0.00 0.00 53 1013.3
20260831150503 27 191 14.5 22.5 0.00 0.00 0.00 53 1013.3
20260831150003 27 196 16.1 24.1 0.00 0.00 0.00 54 1013.2
20260831145003 27 199 16.1 22.5 0.00 0.00 0.00 54 1013.3
20260831144604 27 151 11.3 19.3 0.00 0.00 0.00 54 1013.1
20260831144004 26 176 11.3 20.9 0.00 0.00 0.00 55 1013.3
20260831143502 26 200 9.7 22.5 0.00 0.00 0.00 56 1013.3
20260831143002 26 213 12.9 22.5 0.00 0.00 0.00 56 1013.4
20260831142502 26 211 11.3 25.7 0.00 0.00 0.00 56 1013.3
20260831142000 26 203 11.3 25.7 0.00 0.00 0.00 57 1013.2
20260831141501 26 166 11.3 24.1 0.00 0.00 0.00 57 1013.1
20260831141000 26 189 14.5 24.1 0.00 0.00 0.00 57 1013.2
20260831140600 26 146 11.3 22.5 0.00 0.00 0.00 58 1013.1
20260831140100 26 193 9.7 22.5 0.00 0.00 0.00 58 1013.1
20260831135000 25 180 16.1 24.1 0.00 0.00 0.00 58 1013.0
20260831134501 25 201 14.5 22.5 0.00 0.00 0.00 59 1013.1
20260831134100 25 189 11.3 19.3 0.00 0.00 0.00 59 1013.2
20260831133559 25 193 11.3 22.5 0.00 0.00 0.00 59 1013.0
20260831133159 25 201 12.9 22.5 0.00 0.00 0.00 59 1013.0
20260831132558 25 163 12.9 22.5 0.00 0.00 0.00 59 1012.9
20260831132058 25 191 11.3 24.1 0.00 0.00 0.00 59 1012.9
20260831131559 25 161 11.3 24.1 0.00 0.00 0.00 59 1012.9
20260831131057 25 181 9.7 22.5 0.00 0.00 0.00 60 1012.7
20260831130555 25 193 12.9 22.5 0.00 0.00 0.00 60 1012.7
20260831130100 25 195 9.7 20.9 0.00 0.00 0.00 60 1012.7
20260831125051 25 154 9.7 16.1 0.00 0.00 0.00 60 1012.7
20260831124558 25 180 8.0 16.1 0.00 0.00 0.00 60 1012.6
20260831124049 25 168 8.0 14.5 0.00 0.00 0.00 60 1012.6
20260831123547 25 180 6.4 14.5 0.00 0.00 0.00 60 1012.5
20260831123047 25 160 6.4 12.9 0.00 0.00 0.00 59 1012.5
20260831122550 25 122 4.8 9.7 0.00 0.00 0.00 59 1012.5
20260831122046 25 182 1.6 8.0 0.00 0.00 0.00 59 1012.4
20260831121546 25 182 3.2 12.9 0.00 0.00 0.00 59 1012.4
20260831121045 25 184 4.8 14.5 0.00 0.00 0.00 59 1012.2
20260831120544 25 175 6.4 14.5 0.00 0.00 0.00 59 1012.2
20260831120044 25 196 4.8 14.5 0.00 0.00 0.00 58 1012.1
20260831115043 25 163 6.4 12.9 0.00 0.00 0.00 58 1012.2
20260831114542 25 181 6.4 17.7 0.00 0.00 0.00 58 1012.1
20260831114042 25 190 6.4 17.7 0.00 0.00 0.00 57 1012.2
20260831113539 25 177 6.4 14.5 0.00 0.00 0.00 57 1012.1
20260831113038 25 172 6.4 17.7 0.00 0.00 0.00 57 1012.3
20260831112537 25 202 9.7 17.7 0.00 0.00 0.00 57 1012.3
20260831112043 25 165 6.4 17.7 0.00 0.00 0.00 56 1012.1
20260831111539 26 175 9.7 19.3 0.00 0.00 0.00 56 1012.2
20260831111035 26 151 9.7 17.7 0.00 0.00 0.00 56 1012.1
20260831110535 26 194 11.3 17.7 0.00 0.00 0.00 56 1012.2
20260831110034 26 199 9.7 22.5 0.00 0.00 0.00 55 1012.2
20260831105034 26 193 9.7 22.5 0.00 0.00 0.00 55 1012.0
20260831104537 26 210 12.9 19.3 0.00 0.00 0.00 54 1011.9
20260831104032 26 189 6.4 17.7 0.00 0.00 0.00 54 1011.9
20260831103534 26 191 8.0 19.3 0.00 0.00 0.00 53 1012.0
20260831103032 26 195 8.0 19.3 0.00 0.00 0.00 53 1012.1
20260831102533 26 199 8.0 19.3 0.00 0.00 0.00 53 1012.0
20260831102033 26 181 11.3 29.0 0.00 0.00 0.00 52 1012.0
20260831101530 26 210 16.1 29.0 0.00 0.00 0.00 52 1012.0
20260831101029 26 192 9.7 20.9 0.00 0.00 0.00 51 1012.0
20260831100529 26 197 12.9 20.9 0.00 0.00 0.00 51 1012.0
20260831100029 26 187 11.3 17.7 0.00 0.00 0.00 50 1012.0
20260831095027 26 206 12.9 24.1 0.00 0.00 0.00 49 1012.0
20260831094532 26 189 9.7 20.9 0.00 0.00 0.00 48 1011.9
20260831094027 26 191 9.7 17.7 0.00 0.00 0.00 48 1012.0
20260831093526 27 189 8.0 17.7 0.00 0.00 0.00 47 1011.9
20260831093031 27 185 9.7 17.7 0.00 0.00 0.00 47 1011.9
20260831092526 27 191 9.7 17.7 0.00 0.00 0.00 47 1011.9
20260831092027 27 173 8.0 16.1 0.00 0.00 0.00 46 1011.9
20260831091524 27 172 6.4 20.9 0.00 0.00 0.00 46 1011.9
20260831091024 27 153 9.7 27.4 0.00 0.00 0.00 46 1011.8
20260831090524 27 178 11.3 27.4 0.00 0.00 0.00 45 1011.8
20260831090023 27 175 11.3 19.3 0.00 0.00 0.00 44 1011.9
20260831085023 27 191 8.0 16.1 0.00 0.00 0.00 43 1011.9
20260831084534 27 188 9.7 19.3 0.00 0.00 0.00 43 1011.9
20260831084021 27 178 8.0 19.3 0.00 0.00 0.00 42 1011.9
20260831083521 27 191 8.0 17.7 0.00 0.00 0.00 42 1012.0
20260831083036 27 195 8.0 17.7 0.00 0.00 0.00 42 1012.0
20260831082521 27 187 11.3 17.7 0.00 0.00 0.00 41 1011.9
20260831082020 27 198 8.0 17.7 0.00 0.00 0.00 41 1011.9
20260831081522 27 190 9.7 17.7 0.00 0.00 0.00 41 1011.8
20260831081024 27 196 8.0 17.7 0.00 0.00 0.00 41 1011.8
20260831080521 27 182 8.0 16.1 0.00 0.00 0.00 41 1011.7
20260831080027 27 189 8.0 14.5 0.00 0.00 0.00 41 1011.8
20260831075019 27 183 8.0 14.5 0.00 0.00 0.00 41 1012.0
20260831074520 27 198 6.4 14.5 0.00 0.00 0.00 41 1012.0
20260831074022 27 192 4.8 9.7 0.00 0.00 0.00 41 1012.1
20260831073520 27 172 4.8 6.4 0.00 0.00 0.00 40 1012.1
20260831073020 27 175 3.2 8.0 0.00 0.00 0.00 40 1012.1
20260831072518 27 175 4.8 9.7 0.00 0.00 0.00 40 1012.1
20260831072018 27 175 4.8 9.7 0.00 0.00 0.00 39 1011.9
20260831071516 27 180 4.8 8.0 0.00 0.00 0.00 39 1012.0
20260831071016 27 179 3.2 6.4 0.00 0.00 0.00 39 1011.9
20260831070515 27 179 3.2 8.0 0.00 0.00 0.00 38 1012.0
20260831070016 27 179 3.2 8.0 0.00 0.00 0.00 38 1011.9
20260831065016 27 177 3.2 8.0 0.00 0.00 0.00 38 1012.0
20260831064516 27 177 3.2 8.0 0.00 0.00 0.00 38 1012.0
20260831064015 27 173 3.2 6.4 0.00 0.00 0.00 38 1012.0
20260831063513 27 173 1.6 6.4 0.00 0.00 0.00 37 1012.0
20260831063013 27 173 3.2 6.4 0.00 0.00 0.00 37 1012.0
20260831062512 27 173 1.6 4.8 0.00 0.00 0.00 37 1012.0
20260831062012 28 173 1.6 6.4 0.00 0.00 0.00 37 1012.0
20260831061511 28 173 3.2 6.4 0.00 0.00 0.00 36 1011.9
20260831061011 28 173 3.2 6.4 0.00 0.00 0.00 36 1012.0
20260831060510 28 172 3.2 6.4 0.00 0.00 0.00 36 1012.0
20260831060009 28 165 1.6 6.4 0.00 0.00 0.00 35 1011.8
20260831055008 28 165 1.6 6.4 0.00 0.00 0.00 35 1011.8
20260831054508 28 164 1.6 6.4 0.00 0.00 0.00 35 1011.8
20260831054007 28 164 3.2 6.4 0.00 0.00 0.00 34 1011.8
20260831053507 28 164 3.2 8.0 0.00 0.00 0.00 34 1011.8
20260831053007 28 160 4.8 8.0 0.00 0.00 0.00 34 1011.9
20260831052506 29 163 4.8 8.0 0.00 0.00 0.00 34 1011.9
20260831052007 29 162 3.2 8.0 0.00 0.00 0.00 33 1011.8
20260831051508 29 169 3.2 8.0 0.00 0.00 0.00 33 1011.8
20260831051004 29 169 3.2 9.7 0.00 0.00 0.00 32 1011.8
20260831050501 30 171 3.2 9.7 0.00 0.00 0.00 32 1011.7
20260831050100 30 164 4.8 12.9 0.00 0.00 0.00 32 1011.7
20260831045001 30 195 8.0 19.3 0.00 0.00 0.00 31 1011.7
20260831044607 30 188 9.7 19.3 0.00 0.00 0.00 31 1011.7
20260831044101 30 199 9.7 16.1 0.00 0.00 0.00 30 1011.6
20260831043559 30 198 9.7 17.7 0.00 0.00 0.00 30 1011.6
20260831043100 30 206 11.3 17.7 0.00 0.00 0.00 30 1011.5
20260831042602 30 201 9.7 22.5 0.00 0.00 0.00 30 1011.4
20260831042059 31 200 12.9 22.5 0.00 0.00 0.00 30 1011.4
20260831041659 31 193 12.9 22.5 0.00 0.00 0.00 30 1011.3
20260831041100 31 191 11.3 22.5 0.00 0.00 0.00 29 1011.3
20260831040559 31 199 11.3 24.1 0.00 0.00 0.00 29 1011.2
20260831040059 31 222 11.3 19.3 0.00 0.00 0.00 29 1011.3
20260831035007 31 183 11.3 19.3 0.00 0.00 0.00 29 1011.2
20260831034507 31 185 8.0 16.1 0.00 0.00 0.00 29 1011.1
20260831034006 31 190 6.4 16.1 0.00 0.00 0.00 29 1011.1
20260831033506 31 200 8.0 14.5 0.00 0.00 0.00 29 1011.0
20260831033007 31 190 8.0 14.5 0.00 0.00 0.00 28 1010.9
20260831032507 31 187 6.4 14.5 0.00 0.00 0.00 28 1010.8
20260831032007 31 194 4.8 14.5 0.00 0.00 0.00 28 1010.8
20260831031515 31 189 6.4 14.5 0.00 0.00 0.00 28 1010.8
20260831031006 31 196 4.8 12.9 0.00 0.00 0.00 28 1010.7
20260831030507 31 175 6.4 12.9 0.00 0.00 0.00 28 1010.6
20260831030006 31 191 4.8 12.9 0.00 0.00 0.00 28 1010.7
20260831025057 31 187 6.4 12.9 0.00 0.00 0.00 28 1010.6
20260831024604 31 191 4.8 9.7 0.00 0.00 0.00 28 1010.5
20260831024058 31 191 4.8 9.7 0.00 0.00 0.00 27 1010.4
20260831023557 32 194 4.8 9.7 0.00 0.00 0.00 27 1010.3
20260831023057 32 193 4.8 12.9 0.00 0.00 0.00 27 1010.0
20260831022556 32 187 6.4 16.1 0.00 0.00 0.00 27 1009.9
20260831022057 32 196 8.0 16.1 0.00 0.00 0.00 26 1010.0
20260831021602 32 191 6.4 14.5 0.00 0.00 0.00 26 1009.9
20260831021056 32 197 8.0 17.7 0.00 0.00 0.00 26 1009.8
20260831020556 32 188 11.3 17.7 0.00 0.00 0.00 25 1009.8
20260831020156 32 212 9.7 17.7 0.00 0.00 0.00 25 1009.7
20260831015058 33 191 8.0 16.1 0.00 0.00 0.00 25 1009.6
20260831014612 33 180 8.0 17.7 0.00 0.00 0.00 24 1009.6
20260831014058 33 184 8.0 17.7 0.00 0.00 0.00 24 1009.5
20260831013558 33 193 8.0 14.5 0.00 0.00 0.00 24 1009.5
20260831013059 33 190 6.4 20.9 0.00 0.00 0.00 23 1009.6
20260831012558 33 200 11.3 20.9 0.00 0.00 0.00 23 1009.5
20260831012059 33 193 8.0 17.7 0.00 0.00 0.00 23 1009.5
20260831011613 34 200 8.0 24.1 0.00 0.00 0.00 22 1009.4
20260831011057 34 176 14.5 24.1 0.00 0.00 0.00 22 1009.4
20260831010557 34 196 11.3 19.3 0.00 0.00 0.00 22 1009.4
20260831010058 34 184 8.0 19.3 0.00 0.00 0.00 22 1009.3
20260831005058 35 164 9.7 25.7 0.00 0.00 0.00 21 1009.2
20260831004558 35 183 11.3 25.7 0.00 0.00 0.00 21 1009.2
20260831004158 35 198 11.3 20.9 0.00 0.00 0.00 21 1009.1
20260831003557 35 203 12.9 22.5 0.00 0.00 0.00 22 1009.1
20260831003057 35 153 11.3 22.5 0.00 0.00 0.00 22 1009.1
20260831002600 35 159 9.7 22.5 0.00 0.00 0.00 22 1009.0
20260831002059 35 187 11.3 24.1 0.00 0.00 0.00 22 1009.0
20260831001604 35 164 9.7 22.5 0.00 0.00 0.00 22 1008.9
20260831001059 35 200 12.9 20.9 0.00 0.00 0.00 21 1008.9
20260831000557 36 191 8.0 19.3 0.00 0.00 0.00 19 1008.9
20260830235054 36 199 8.0 22.5 0.00 0.00 0.00 20 1008.9
20260830234553 36 187 9.7 20.9 0.00 0.00 0.00 20 1008.9
20260830234053 36 201 12.9 20.9 0.00 0.00 0.00 20 1008.9
20260830233553 36 214 9.7 20.9 0.00 0.00 0.00 20 1009.0
20260830233103 36 171 12.9 20.9 0.00 0.00 0.00 20 1009.0
20260830232556 36 193 12.9 25.7 0.00 0.00 0.00 21 1008.9
20260830232053 36 219 16.1 25.7 0.00 0.00 0.00 21 1009.0
20260830231558 36 198 16.1 24.1 0.00 0.00 0.00 21 1008.9
20260830231052 36 191 11.3 30.6 0.00 0.00 0.00 21 1009.0
20260830230552 36 190 19.3 30.6 0.00 0.00 0.00 21 1009.0